Погода Облучье

Погода Облучье : погода сейчас, прогноз погоды и архив. Всё, что Вы хотите узнать о погоде Облучье!

Хотите узнать прогноз погоды Облучье? Тогда Вам сюда: Погода Облучье

Поиск расширенной информации на нашем сайте:

Другие новости

Новости СМИ2

Главная страница сайта

Новости сайта

03.07.2017

Напоминаем, что на нашем специализированном сайте Метеоцентр.Азия вы можете получить высокодетализированные автоматические прогнозы погоды по пунктам России, СНГ и мира в авиационном формате (включающие направление и скорость ветра, видимость, явления погоды, количество и форму облачности, нижнюю и верхнюю границу облачности).


Погода Облучье - сегодня

Время (UTC), дата Ветер
(°,м/с) 
Видим.   Явления Облачность Т
(°С)
Тd
(°С)
f(%) Тe
(°С)
Pmin
(гПа)
dP
(гПа)
Po
(мм)
O2
(г/м3)
Тmin Tmax R s Состояние
почвы
21 20.10.17 270 (З) 10 км  слаб. снег  10/0 средняя 
[As op]
-3.3 -4.7 90 -4  1016  1.4  737  301  -3.3    равномерный
сухой снег
100% 
00 21.10.17 280 (З) 20000 м  {снег}  9/8 1000 м верхняя 
[Sc|Ci fib]
-5.8 -9 78 -7  1019.2  2.8  739  305           
03 21.10.17 280 (З) 20000 м    8/8 1000 м 
[Sc]
-3.3 -10.2 59 -5  1020.3  1.4  740  303           
06 21.10.17 270 (З) 3{11}  20000 м    6/4 1000 м средняя 
[Sc|Ac trans]
-3 -11.8 51 -5  1021.2  0.9  741  303           
09 21.10.17 360 (С) 20000 м    ясно 
-5.2 -11.1 63 -8  1023.2  1.6  742  306    -2.4  0.0     
12 21.10.17 тихо ()   20000 м    ясно 
-7.7 -11.3 75 -8  1025  1.4  743  309           
15 21.10.17 360 (С) 20000 м    ясно 
-10.6 -12.7 85 -12  1024.6  -0.8  743  312           
18 21.10.17 360 (С) 20000 м    ясно 
-11.5 -13.7 84 -11  1025.5  0.7  743  314           
21 21.10.17 тихо ()   20000 м    ясно 
-11.8 -13 91 -12  1026.6  744  314  -12.2        замёрзшая 
00 22.10.17 230 (ЮЗ) 20000 м    ясно 
-7.2 -12.6 65 -7  1027.9  1.8  745  310  -12.6         
03 22.10.17 320 (СЗ) 20000 м    ясно 
-2.8 -14.2 41 -5  1027.1  -0.2  745  305           
06 22.10.17 280 (З) 2{10}  20000 м    ясно 
-2.3 -14.5 39 -3  1026.4  -0.6  745  304           
09 22.10.17 010 (С) 20000 м    3/0 верхняя 
[Ci fib]
-4.6 -13.1 51 -6  1026.9  0.2  745  306    -1.4       
12 22.10.17 330 (СЗ) 20000 м    ясно 
-8 -13 67 -10  1027.4  745  310           
15 22.10.17 360 (С) 20000 м    ясно 
-10.4 -13.8 76 -12  1027.2  -0.5  744  313           
18 22.10.17 330 (СЗ) 20000 м    ясно 
-12.3 -15 80 -14  1026.3  -1.1  744  315           
21 22.10.17 тихо ()   20000 м    ясно 
-13 -15.2 84 -13  1025.6  -0.9  743  316  -13.3        замёрзшая 
00 23.10.17 170 (Ю) 20000 м    ясно 
-8 -12.5 70 -8  1023.7  -1.1  742  309  -13.6         
03 23.10.17 280 (З) 20000 м    ясно 
+1.5 -9.4 44 +2  1020.6  -1.9  741  298           
06 23.10.17 300 (СЗ) 20000 м    ясно 
+4.7 -13.9 25 +4  1018.9  -1.3  740  294           
09 23.10.17 360 (С) 20000 м    ясно 
-2.4 -10.1 55 -2  1019.7  740  302    +4.9       
12 23.10.17 тихо ()   20000 м    ясно 
-6.1 -9.9 74 -6  1020.5  0.3  740  306           
15 23.10.17 010 (С) 20000 м    ясно 
-7.8 -10.4 82 -8  1021  0.3  740  308           
18 23.10.17 360 (С) 20000 м    ясно 
-6.7 -10.6 74 -6  1020.5  -0.3  740  307           
21 23.10.17 360 (С) 20000 м    ясно 
-7 -10.7 75 -10  1020.1  -0.4  740  307  -8.1        замёрзшая 
Время (UTC), дата Ветер
(°,м/с) 
Видим.   Явления Облачность Т
(°С)
Тd
(°С)
f(%) Тe
(°С)
Pmin
(гПа)
dP
(гПа)
Po
(мм)
O2
(г/м3)
Тmin Tmax R s Состояние
почвы

Для получения пояснительной информации подведите курсор к названию столбца.

ПОГОДА Облучье - архив

Всё, что Вы хотите узнать о погоде Облучье - удобно и подробно!

Выберите нужную дату (начиная с 1 января 2015* года) и нажмите кнопку "Найти".
Будут отображены архивные сводки погоды по пункту Облучье, начиная с указанной даты.


Отображать данные в формате CSV (для использования в таблицах Excel)


Внимание! Наш архив погоды предназначен исключительно для личного некоммерческого использования в познавательных целях. Если Вам необходимы официальные справки о состоянии погоды (для производственных, юридических, коммерческих и т.п. целей), обращайтесь в органы Росгидромета.

*Примечание: данная дата относится к архиву по метеостанциям СССР (Россия, СНГ, Балтия).
Архив по метеостанциям Зарубежной Европы и Азии (кроме Китая) хранится 10 дней, по другим регионам земного шара (Китай, Африка, Америка, Австралия, Океания) - 1 день.

Облучье - район местоположения метеостанции


Название, широта, долгота, высота метеостанции:
Облучье 49°ш. 131.1°д. 257 м над ур. моря [Российская Федерация]

Дополнительная информация

В oтличие oт бoльшинства пoгoдных сайтoв мы публикуем пoдрoбную метеoинфoрмацию в детальнoм прoфессиoнальнoм фoрмате.

Характеристики температуры и влажнoсти вoздуха измеряются на высoте 2 м в тени вдали oт зданий и деревьев.
Скoрoсть ветра измеряется на высoте 10 м (на урoвне рoста челoвека скoрoсть ветра ниже в 1.5-2 раза). Если метеoстанция нахoдится в гoрoде или в лесу, тo скoрoсть ветра занижена на 2-4 м/с пo сравнению с oткрытым местoм. Скoрoсть ветра над акватoриями крупных рек и oзёр, а также на вершинах хoлмoв на 2-5 м/с выше, чем в oбычных услoвиях.
Атмoсфернoе давление в разных тoчках местнoсти мoжет значительнo oтличаться oт давления на метеoстанции, в зависимoсти oт услoвий рельефа (при пoдъёме на 10 м давление пoнижается примернo на 1 мм рт.ст.).